LUCH 5A (SDCM/PRN 140)

Last updated on Mon Jun 22 2026 00:03:32 GMT+0000 (Coordinated Universal Time)

1 37951U 11074B 26172.50531091 -.00000055 00000+0 00000+0 0 9999 2 37951 8.7658 73.7450 0002478 27.2246 157.5700 1.00271231 53090
UTC large
Height (km)
Speed (km/s)
/
Latitude / Longitude
Inclination (degrees)
Orbital Period (minutes)
Azimuth
Elevation
Range (km)
Doppler Factor

Next 0 passes for location: London (51.5072 / 0.1276)

No passes found over London.
LUCH 5A (SDCM/PRN 140)